Year,Month,Day,Hour,Minute,Value (Times are PST for temperature in C)
2017,06,24,00,00,15.90
2017,06,24,00,01,15.80
2017,06,24,00,02,15.80
2017,06,24,00,03,15.70
2017,06,24,00,04,15.60
2017,06,24,00,05,15.60
2017,06,24,00,06,15.50
2017,06,24,00,07,15.50
2017,06,24,00,08,15.40
2017,06,24,00,09,15.40
2017,06,24,00,10,15.30
2017,06,24,00,11,15.30
2017,06,24,00,12,15.30
2017,06,24,00,13,15.30
2017,06,24,00,14,15.30
2017,06,24,00,15,15.20
2017,06,24,00,16,15.20
2017,06,24,00,17,15.10
2017,06,24,00,18,15.10
2017,06,24,00,19,15.00
2017,06,24,00,20,15.00
2017,06,24,00,21,14.90
2017,06,24,00,22,14.90
2017,06,24,00,23,14.90
2017,06,24,00,24,14.90
2017,06,24,00,25,14.80
2017,06,24,00,26,14.80
2017,06,24,00,27,14.80
2017,06,24,00,28,14.80
2017,06,24,00,29,14.80
2017,06,24,00,30,14.80
2017,06,24,00,31,14.80
2017,06,24,00,32,14.80
2017,06,24,00,33,14.70
2017,06,24,00,34,14.70
2017,06,24,00,35,14.70
2017,06,24,00,36,14.70
2017,06,24,00,37,14.60
2017,06,24,00,38,14.60
2017,06,24,00,39,14.60
2017,06,24,00,40,14.60
2017,06,24,00,42,14.60
2017,06,24,00,44,14.50
2017,06,24,00,46,14.50
2017,06,24,00,47,14.50
2017,06,24,00,48,14.50
2017,06,24,00,49,14.50
2017,06,24,00,51,14.60
2017,06,24,00,52,14.60
2017,06,24,00,53,14.60
2017,06,24,00,54,14.60
2017,06,24,00,56,14.60
2017,06,24,00,57,14.60
2017,06,24,00,58,14.60
2017,06,24,00,59,14.60
2017,06,24,01,01,14.60
2017,06,24,01,02,14.60
2017,06,24,01,03,14.60
2017,06,24,01,04,14.60
2017,06,24,01,06,14.60
2017,06,24,01,07,14.60
2017,06,24,01,08,14.60
2017,06,24,01,09,14.50
2017,06,24,01,11,14.50
2017,06,24,01,12,14.50
2017,06,24,01,13,14.50
2017,06,24,01,14,14.50
2017,06,24,01,16,14.50
2017,06,24,01,17,14.40
2017,06,24,01,18,14.40
2017,06,24,01,19,14.40
2017,06,24,01,21,14.30
2017,06,24,01,22,14.30
2017,06,24,01,23,14.30
2017,06,24,01,24,14.20
2017,06,24,01,26,14.20
2017,06,24,01,27,14.20
2017,06,24,01,28,14.20
2017,06,24,01,29,14.20
2017,06,24,01,31,14.10
2017,06,24,01,32,14.00
2017,06,24,01,33,14.00
2017,06,24,01,34,14.00
2017,06,24,01,36,13.90
2017,06,24,01,37,13.80
2017,06,24,01,38,13.80
2017,06,24,01,39,13.70
2017,06,24,01,41,13.70
2017,06,24,01,42,13.70
2017,06,24,01,43,13.70
2017,06,24,01,44,13.60
2017,06,24,01,46,13.60
2017,06,24,01,47,13.60
2017,06,24,01,48,13.50
2017,06,24,01,49,13.50
2017,06,24,01,51,13.40
2017,06,24,01,52,13.40
2017,06,24,01,53,13.40
2017,06,24,01,54,13.30
2017,06,24,01,56,13.30
2017,06,24,01,57,13.30
2017,06,24,01,58,13.30
2017,06,24,01,59,13.30
2017,06,24,02,01,13.30
2017,06,24,02,02,13.30
2017,06,24,02,03,13.30
2017,06,24,02,04,13.30
2017,06,24,02,06,13.20
2017,06,24,02,07,13.20
2017,06,24,02,08,13.20
2017,06,24,02,09,13.10
2017,06,24,02,10,13.10
2017,06,24,02,11,13.10
2017,06,24,02,12,13.10
2017,06,24,02,13,13.10
2017,06,24,02,14,13.00
2017,06,24,02,15,13.00
2017,06,24,02,16,13.00
2017,06,24,02,17,12.90
2017,06,24,02,18,12.90
2017,06,24,02,19,12.90
2017,06,24,02,20,12.90
2017,06,24,02,21,12.90
2017,06,24,02,22,12.90
2017,06,24,02,23,12.80
2017,06,24,02,24,12.80
2017,06,24,02,25,12.80
2017,06,24,02,26,12.80
2017,06,24,02,27,12.80
2017,06,24,02,28,12.80
2017,06,24,02,29,12.80
2017,06,24,02,30,12.80
2017,06,24,02,31,12.80
2017,06,24,02,32,12.70
2017,06,24,02,33,12.70
2017,06,24,02,34,12.70
2017,06,24,02,35,12.70
2017,06,24,02,36,12.70
2017,06,24,02,37,12.70
2017,06,24,02,38,12.70
2017,06,24,02,39,12.80
2017,06,24,02,40,12.80
2017,06,24,02,41,12.80
2017,06,24,02,42,12.80
2017,06,24,02,43,12.80
2017,06,24,02,44,12.80
2017,06,24,02,45,12.80
2017,06,24,02,46,12.80
2017,06,24,02,47,12.80
2017,06,24,02,48,12.80
2017,06,24,02,49,12.80
2017,06,24,02,50,12.80
2017,06,24,02,51,12.80
2017,06,24,02,52,12.80
2017,06,24,02,53,12.80
2017,06,24,02,54,12.80
2017,06,24,02,55,12.80
2017,06,24,02,56,12.80
2017,06,24,02,57,12.90
2017,06,24,02,58,12.90
2017,06,24,02,59,12.90
2017,06,24,03,00,12.90
2017,06,24,03,01,12.90
2017,06,24,03,02,13.00
2017,06,24,03,03,13.00
2017,06,24,03,04,13.00
2017,06,24,03,05,13.00
2017,06,24,03,06,13.00
2017,06,24,03,07,13.10
2017,06,24,03,08,13.10
2017,06,24,03,09,13.10
2017,06,24,03,10,13.10
2017,06,24,03,11,13.10
2017,06,24,03,12,13.10
2017,06,24,03,13,13.10
2017,06,24,03,14,13.10
2017,06,24,03,15,13.10
2017,06,24,03,16,13.10
2017,06,24,03,17,13.10
2017,06,24,03,18,13.10
2017,06,24,03,19,13.20
2017,06,24,03,20,13.20
2017,06,24,03,21,13.20
2017,06,24,03,22,13.20
2017,06,24,03,23,13.20
2017,06,24,03,24,13.20
2017,06,24,03,25,13.20
2017,06,24,03,26,13.20
2017,06,24,03,27,13.20
2017,06,24,03,29,13.20
2017,06,24,03,31,13.20
2017,06,24,03,32,13.20
2017,06,24,03,33,13.20
2017,06,24,03,34,13.20
2017,06,24,03,36,13.30
2017,06,24,03,37,13.30
2017,06,24,03,38,13.30
2017,06,24,03,39,13.30
2017,06,24,03,41,13.30
2017,06,24,03,42,13.30
2017,06,24,03,43,13.30
2017,06,24,03,44,13.30
2017,06,24,03,46,13.30
2017,06,24,03,47,13.30
2017,06,24,03,48,13.30
2017,06,24,03,49,13.30
2017,06,24,03,51,13.30
2017,06,24,03,52,13.30
2017,06,24,03,53,13.30
2017,06,24,03,54,13.30
2017,06,24,03,56,13.30
2017,06,24,03,57,13.30
2017,06,24,03,58,13.30
2017,06,24,03,59,13.30
2017,06,24,04,01,13.30
2017,06,24,04,02,13.30
2017,06,24,04,03,13.30
2017,06,24,04,04,13.30
2017,06,24,04,06,13.30
2017,06,24,04,07,13.30
2017,06,24,04,08,13.30
2017,06,24,04,09,13.30
2017,06,24,04,11,13.30
2017,06,24,04,12,13.30
2017,06,24,04,13,13.30
2017,06,24,04,14,13.30
2017,06,24,04,16,13.20
2017,06,24,04,17,13.20
2017,06,24,04,18,13.20
2017,06,24,04,19,13.20
2017,06,24,04,21,13.10
2017,06,24,04,22,13.10
2017,06,24,04,23,13.10
2017,06,24,04,24,13.10
2017,06,24,04,26,13.00
2017,06,24,04,27,13.00
2017,06,24,04,28,13.00
2017,06,24,04,29,12.90
2017,06,24,04,31,12.90
2017,06,24,04,32,12.90
2017,06,24,04,33,12.80
2017,06,24,04,34,12.80
2017,06,24,04,36,12.80
2017,06,24,04,37,12.80
2017,06,24,04,38,12.80
2017,06,24,04,39,12.80
2017,06,24,04,41,12.70
2017,06,24,04,42,12.70
2017,06,24,04,43,12.60
2017,06,24,04,44,12.60
2017,06,24,04,46,12.50
2017,06,24,04,47,12.50
2017,06,24,04,48,12.50
2017,06,24,04,49,12.50
2017,06,24,04,50,12.40
2017,06,24,04,51,12.40
2017,06,24,04,52,12.40
2017,06,24,04,53,12.40
2017,06,24,04,54,12.40
2017,06,24,04,55,12.30
2017,06,24,04,56,12.30
2017,06,24,04,57,12.30
2017,06,24,04,58,12.30
2017,06,24,04,59,12.30
2017,06,24,05,00,12.30
2017,06,24,05,01,12.30
2017,06,24,05,02,12.30
2017,06,24,05,03,12.30
2017,06,24,05,04,12.30
2017,06,24,05,06,12.30
2017,06,24,05,07,12.20
2017,06,24,05,08,12.20
2017,06,24,05,09,12.20
2017,06,24,05,10,12.20
2017,06,24,05,11,12.20
2017,06,24,05,12,12.20
2017,06,24,05,13,12.20
2017,06,24,05,14,12.20
2017,06,24,05,15,12.10
2017,06,24,05,16,12.10
2017,06,24,05,17,12.10
2017,06,24,05,18,12.10
2017,06,24,05,19,12.10
2017,06,24,05,20,12.10
2017,06,24,05,21,12.10
2017,06,24,05,22,12.10
2017,06,24,05,23,12.10
2017,06,24,05,24,12.10
2017,06,24,05,25,12.10
2017,06,24,05,26,12.10
2017,06,24,05,27,12.10
2017,06,24,05,28,12.10
2017,06,24,05,29,12.10
2017,06,24,05,30,12.10
2017,06,24,05,31,12.10
2017,06,24,05,32,12.10
2017,06,24,05,33,12.10
2017,06,24,05,34,12.20
2017,06,24,05,35,12.20
2017,06,24,05,36,12.20
2017,06,24,05,37,12.30
2017,06,24,05,38,12.30
2017,06,24,05,39,12.30
2017,06,24,05,40,12.30
2017,06,24,05,41,12.40
2017,06,24,05,42,12.40
2017,06,24,05,43,12.50
2017,06,24,05,44,12.50
2017,06,24,05,45,12.60
2017,06,24,05,46,12.60
2017,06,24,05,47,12.60
2017,06,24,05,48,12.70
2017,06,24,05,49,12.70
2017,06,24,05,50,12.70
2017,06,24,05,51,12.70
2017,06,24,05,52,12.70
2017,06,24,05,53,12.70
2017,06,24,05,54,12.70
2017,06,24,05,55,12.70
2017,06,24,05,56,12.80
2017,06,24,05,57,12.80
2017,06,24,05,58,12.80
2017,06,24,05,59,12.80
2017,06,24,06,00,12.80
2017,06,24,06,01,12.80
2017,06,24,06,02,12.80
2017,06,24,06,04,12.80
2017,06,24,06,06,12.80
2017,06,24,06,07,12.80
2017,06,24,06,08,12.80
2017,06,24,06,09,12.80
2017,06,24,06,11,12.80
2017,06,24,06,12,12.80
2017,06,24,06,13,12.80
2017,06,24,06,14,12.80
2017,06,24,06,16,12.80
2017,06,24,06,17,12.80
2017,06,24,06,18,12.80
2017,06,24,06,19,12.80
2017,06,24,06,21,12.90
2017,06,24,06,22,12.90
2017,06,24,06,23,12.90
2017,06,24,06,24,13.00
2017,06,24,06,26,13.10
2017,06,24,06,27,13.10
2017,06,24,06,28,13.20
2017,06,24,06,29,13.20
2017,06,24,06,31,13.30
2017,06,24,06,32,13.30
2017,06,24,06,33,13.30
2017,06,24,06,34,13.40
2017,06,24,06,36,13.40
2017,06,24,06,37,13.50
2017,06,24,06,38,13.50
2017,06,24,06,39,13.50
2017,06,24,06,41,13.60
2017,06,24,06,42,13.60
2017,06,24,06,43,13.60
2017,06,24,06,44,13.70
2017,06,24,06,46,13.70
2017,06,24,06,47,13.70
2017,06,24,06,48,13.70
2017,06,24,06,49,13.80
2017,06,24,06,51,13.80
2017,06,24,06,52,13.80
2017,06,24,06,53,13.90
2017,06,24,06,54,13.90
2017,06,24,06,56,13.90
2017,06,24,06,57,13.90
2017,06,24,06,58,14.00
2017,06,24,06,59,14.00
2017,06,24,07,01,14.00
2017,06,24,07,02,14.00
2017,06,24,07,03,14.10
2017,06,24,07,04,14.10
2017,06,24,07,06,14.10
2017,06,24,07,07,14.10
2017,06,24,07,08,14.20
2017,06,24,07,09,14.20
2017,06,24,07,11,14.20
2017,06,24,07,12,14.20
2017,06,24,07,13,14.20
2017,06,24,07,14,14.20
2017,06,24,07,16,14.20
2017,06,24,07,17,14.20
2017,06,24,07,18,14.20
2017,06,24,07,19,14.20
2017,06,24,07,21,14.20
2017,06,24,07,22,14.30
2017,06,24,07,23,14.30
2017,06,24,07,24,14.30
2017,06,24,07,26,14.30
2017,06,24,07,27,14.30
2017,06,24,07,28,14.30
2017,06,24,07,29,14.30
2017,06,24,07,31,14.30
2017,06,24,07,32,14.30
2017,06,24,07,33,14.30
2017,06,24,07,34,14.30
2017,06,24,07,36,14.30
2017,06,24,07,37,14.30
2017,06,24,07,38,14.30
2017,06,24,07,39,14.30
2017,06,24,07,41,14.30
2017,06,24,07,42,14.30
2017,06,24,07,43,14.20
2017,06,24,07,44,14.20
2017,06,24,07,45,14.30
2017,06,24,07,46,14.30
2017,06,24,07,47,14.30
2017,06,24,07,48,14.30
2017,06,24,07,49,14.30
2017,06,24,07,50,14.40
2017,06,24,07,51,14.40
2017,06,24,07,52,14.40
2017,06,24,07,53,14.40
2017,06,24,07,54,14.40
2017,06,24,07,55,14.50
2017,06,24,07,56,14.50
2017,06,24,07,57,14.50
2017,06,24,07,58,14.60
2017,06,24,07,59,14.60
2017,06,24,08,00,14.60
2017,06,24,08,01,14.60
2017,06,24,08,02,14.70
2017,06,24,08,03,14.70
2017,06,24,08,04,14.80
2017,06,24,08,05,14.80
2017,06,24,08,06,14.80
2017,06,24,08,07,14.90
2017,06,24,08,08,14.90
2017,06,24,08,09,15.00
2017,06,24,08,10,15.10
2017,06,24,08,11,15.20
2017,06,24,08,12,15.20
2017,06,24,08,13,15.30
2017,06,24,08,14,15.30
2017,06,24,08,15,15.30
2017,06,24,08,16,15.30
2017,06,24,08,17,15.40
2017,06,24,08,18,15.40
2017,06,24,08,19,15.40
2017,06,24,08,20,15.50
2017,06,24,08,21,15.50
2017,06,24,08,22,15.50
2017,06,24,08,23,15.50
2017,06,24,08,24,15.60
2017,06,24,08,25,15.60
2017,06,24,08,26,15.60
2017,06,24,08,27,15.60
2017,06,24,08,28,15.70
2017,06,24,08,29,15.70
2017,06,24,08,30,15.70
2017,06,24,08,31,15.70
2017,06,24,08,32,15.70
2017,06,24,08,33,15.70
2017,06,24,08,34,15.80
2017,06,24,08,35,15.80
2017,06,24,08,36,15.80
2017,06,24,08,37,15.80
2017,06,24,08,38,15.80
2017,06,24,08,39,15.90
2017,06,24,08,40,15.90
2017,06,24,08,41,15.90
2017,06,24,08,42,16.10
2017,06,24,08,43,16.10
2017,06,24,08,44,16.10
2017,06,24,08,45,16.20
2017,06,24,08,46,16.30
2017,06,24,08,47,16.30
2017,06,24,08,48,16.40
2017,06,24,08,49,16.40
2017,06,24,08,50,16.60
2017,06,24,08,51,16.70
2017,06,24,08,52,16.70
2017,06,24,08,53,16.80
2017,06,24,08,54,16.90
2017,06,24,08,56,17.00
2017,06,24,08,57,17.10
2017,06,24,08,58,17.10
2017,06,24,08,59,17.20
2017,06,24,09,01,17.30
2017,06,24,09,02,17.30
2017,06,24,09,03,17.30
2017,06,24,09,04,17.30
2017,06,24,09,06,17.30
2017,06,24,09,07,17.30
2017,06,24,09,08,17.30
2017,06,24,09,09,17.30
2017,06,24,09,11,17.30
2017,06,24,09,12,17.30
2017,06,24,09,13,17.30
2017,06,24,09,14,17.30
2017,06,24,09,16,17.30
2017,06,24,09,17,17.40
2017,06,24,09,18,17.40
2017,06,24,09,19,17.50
2017,06,24,09,21,17.60
2017,06,24,09,22,17.60
2017,06,24,09,23,17.70
2017,06,24,09,24,17.80
2017,06,24,09,26,17.90
2017,06,24,09,27,17.90
2017,06,24,09,28,17.90
2017,06,24,09,29,17.90
2017,06,24,09,31,18.10
2017,06,24,09,32,18.20
2017,06,24,09,33,18.20
2017,06,24,09,34,18.30
2017,06,24,09,36,18.50
2017,06,24,09,37,18.60
2017,06,24,09,38,18.70
2017,06,24,09,39,18.80
2017,06,24,09,41,18.90
2017,06,24,09,42,18.90
2017,06,24,09,43,19.10
2017,06,24,09,44,19.10
2017,06,24,09,46,19.10
2017,06,24,09,47,19.20
2017,06,24,09,48,19.20
2017,06,24,09,49,19.20
2017,06,24,09,51,19.20
2017,06,24,09,52,19.20
2017,06,24,09,53,19.20
2017,06,24,09,54,19.20
2017,06,24,09,56,19.10
2017,06,24,09,57,19.10
2017,06,24,09,58,19.10
2017,06,24,09,59,19.10
2017,06,24,10,01,19.10
2017,06,24,10,02,19.10
2017,06,24,10,03,19.20
2017,06,24,10,04,19.20
2017,06,24,10,06,19.10
2017,06,24,10,07,19.10
2017,06,24,10,08,19.10
2017,06,24,10,09,19.10
2017,06,24,10,11,19.10
2017,06,24,10,12,19.10
2017,06,24,10,13,19.10
2017,06,24,10,14,19.10
2017,06,24,10,16,19.10
2017,06,24,10,17,19.10
2017,06,24,10,18,19.10
2017,06,24,10,19,19.10
2017,06,24,10,20,19.10
2017,06,24,10,21,19.10
2017,06,24,10,22,19.10
2017,06,24,10,23,19.10
2017,06,24,10,24,18.90
2017,06,24,10,25,18.90
2017,06,24,10,26,18.90
2017,06,24,10,27,18.90
2017,06,24,10,28,18.90
2017,06,24,10,29,18.90
2017,06,24,10,30,18.90
2017,06,24,10,31,18.90
2017,06,24,10,32,19.10
2017,06,24,10,33,19.10
2017,06,24,10,34,19.20
2017,06,24,10,36,19.30
2017,06,24,10,37,19.30
2017,06,24,10,38,19.40
2017,06,24,10,39,19.40
2017,06,24,10,40,19.40
2017,06,24,10,41,19.50
2017,06,24,10,42,19.50
2017,06,24,10,43,19.60
2017,06,24,10,44,19.60
2017,06,24,10,45,19.70
2017,06,24,10,46,19.70
2017,06,24,10,47,19.70
2017,06,24,10,48,19.70
2017,06,24,10,49,19.70
2017,06,24,10,50,19.70
2017,06,24,10,51,19.70
2017,06,24,10,52,19.70
2017,06,24,10,53,19.80
2017,06,24,10,54,19.80
2017,06,24,10,55,19.80
2017,06,24,10,56,19.80
2017,06,24,10,57,19.80
2017,06,24,10,58,19.80
2017,06,24,10,59,19.80
2017,06,24,11,00,19.80
2017,06,24,11,01,19.80
2017,06,24,11,02,19.80
2017,06,24,11,03,19.80
2017,06,24,11,04,19.80
2017,06,24,11,05,19.80
2017,06,24,11,06,19.80
2017,06,24,11,07,19.80
2017,06,24,11,08,19.90
2017,06,24,11,09,19.90
2017,06,24,11,10,19.90
2017,06,24,11,11,19.90
2017,06,24,11,12,19.90
2017,06,24,11,13,19.90
2017,06,24,11,14,19.90
2017,06,24,11,15,19.90
2017,06,24,11,16,19.90
2017,06,24,11,17,19.90
2017,06,24,11,18,19.90
2017,06,24,11,19,19.90
2017,06,24,11,20,19.90
2017,06,24,11,21,19.90
2017,06,24,11,22,20.10
2017,06,24,11,23,20.10
2017,06,24,11,24,20.10
2017,06,24,11,25,20.20
2017,06,24,11,26,20.20
2017,06,24,11,27,20.20
2017,06,24,11,28,20.20
2017,06,24,11,29,20.30
2017,06,24,11,30,20.40
2017,06,24,11,31,20.40
2017,06,24,11,32,20.50
2017,06,24,11,33,20.60
2017,06,24,11,34,20.60
2017,06,24,11,35,20.60
2017,06,24,11,36,20.70
2017,06,24,11,37,20.70
2017,06,24,11,38,20.70
2017,06,24,11,39,20.70
2017,06,24,11,40,20.70
2017,06,24,11,41,20.80
2017,06,24,11,43,20.70
2017,06,24,11,44,20.70
2017,06,24,11,46,20.60
2017,06,24,11,47,20.60
2017,06,24,11,48,20.60
2017,06,24,11,49,20.60
2017,06,24,11,51,20.60
2017,06,24,11,52,20.60
2017,06,24,11,53,20.60
2017,06,24,11,54,20.60
2017,06,24,11,56,20.60
2017,06,24,11,57,20.70
2017,06,24,11,58,20.80
2017,06,24,11,59,20.90
2017,06,24,12,01,21.20
2017,06,24,12,02,21.30
2017,06,24,12,03,21.30
2017,06,24,12,04,21.30
2017,06,24,12,06,21.60
2017,06,24,12,07,21.60
2017,06,24,12,08,21.60
2017,06,24,12,09,21.60
2017,06,24,12,11,21.60
2017,06,24,12,12,21.60
2017,06,24,12,13,21.60
2017,06,24,12,14,21.60
2017,06,24,12,16,21.60
2017,06,24,12,17,21.60
2017,06,24,12,18,21.60
2017,06,24,12,19,21.60
2017,06,24,12,21,21.60
2017,06,24,12,22,21.60
2017,06,24,12,23,21.60
2017,06,24,12,24,21.70
2017,06,24,12,26,21.80
2017,06,24,12,27,21.90
2017,06,24,12,28,22.00
2017,06,24,12,29,22.10
2017,06,24,12,31,22.20
2017,06,24,12,32,22.20
2017,06,24,12,33,22.10
2017,06,24,12,34,22.10
2017,06,24,12,36,22.00
2017,06,24,12,37,21.90
2017,06,24,12,38,21.90
2017,06,24,12,39,21.90
2017,06,24,12,41,21.90
2017,06,24,12,42,21.80
2017,06,24,12,43,21.90
2017,06,24,12,44,21.90
2017,06,24,12,46,21.90
2017,06,24,12,47,21.90
2017,06,24,12,48,21.90
2017,06,24,12,49,22.00
2017,06,24,12,51,22.00
2017,06,24,12,52,22.10
2017,06,24,12,53,22.10
2017,06,24,12,54,22.10
2017,06,24,12,56,22.00
2017,06,24,12,57,22.00
2017,06,24,12,58,22.00
2017,06,24,12,59,22.00
2017,06,24,13,01,22.00
2017,06,24,13,02,22.00
2017,06,24,13,03,22.00
2017,06,24,13,04,22.00
2017,06,24,13,06,21.90
2017,06,24,13,07,21.90
2017,06,24,13,08,21.80
2017,06,24,13,09,21.90
2017,06,24,13,11,21.80
2017,06,24,13,12,21.80
2017,06,24,13,13,21.80
2017,06,24,13,14,21.80
2017,06,24,13,15,21.80
2017,06,24,13,16,21.80
2017,06,24,13,17,21.70
2017,06,24,13,18,21.70
2017,06,24,13,19,21.70
2017,06,24,13,20,21.70
2017,06,24,13,21,21.70
2017,06,24,13,22,21.60
2017,06,24,13,23,21.60
2017,06,24,13,24,21.60
2017,06,24,13,25,21.60
2017,06,24,13,26,21.60
2017,06,24,13,27,21.60
2017,06,24,13,28,21.60
2017,06,24,13,29,21.60
2017,06,24,13,30,21.60
2017,06,24,13,31,21.60
2017,06,24,13,32,21.60
2017,06,24,13,33,21.60
2017,06,24,13,34,21.60
2017,06,24,13,35,21.60
2017,06,24,13,36,21.60
2017,06,24,13,37,21.60
2017,06,24,13,38,21.60
2017,06,24,13,39,21.60
2017,06,24,13,40,21.60
2017,06,24,13,41,21.70
2017,06,24,13,42,21.70
2017,06,24,13,43,21.80
2017,06,24,13,44,21.80
2017,06,24,13,45,21.90
2017,06,24,13,46,21.90
2017,06,24,13,47,22.00
2017,06,24,13,48,22.10
2017,06,24,13,49,22.10
2017,06,24,13,50,22.20
2017,06,24,13,51,22.30
2017,06,24,13,52,22.40
2017,06,24,13,53,22.50
2017,06,24,13,54,22.60
2017,06,24,13,55,22.70
2017,06,24,13,56,22.80
2017,06,24,13,57,22.80
2017,06,24,13,58,22.80
2017,06,24,13,59,22.80
2017,06,24,14,00,22.80
2017,06,24,14,01,22.80
2017,06,24,14,02,22.90
2017,06,24,14,03,22.90
2017,06,24,14,04,22.90
2017,06,24,14,05,22.90
2017,06,24,14,06,22.90
2017,06,24,14,07,22.90
2017,06,24,14,08,23.10
2017,06,24,14,09,23.10
2017,06,24,14,10,23.10
2017,06,24,14,11,23.20
2017,06,24,14,12,23.20
2017,06,24,14,13,23.30
2017,06,24,14,14,23.30
2017,06,24,14,15,23.30
2017,06,24,14,16,23.20
2017,06,24,14,17,23.20
2017,06,24,14,18,23.20
2017,06,24,14,19,23.20
2017,06,24,14,20,23.20
2017,06,24,14,21,23.20
2017,06,24,14,22,23.20
2017,06,24,14,23,23.20
2017,06,24,14,24,23.20
2017,06,24,14,25,23.20
2017,06,24,14,27,23.20
2017,06,24,14,28,23.20
2017,06,24,14,29,23.20
2017,06,24,14,31,23.20
2017,06,24,14,32,23.20
2017,06,24,14,33,23.20
2017,06,24,14,34,23.20
2017,06,24,14,36,23.20
2017,06,24,14,37,23.20
2017,06,24,14,38,23.20
2017,06,24,14,39,23.20
2017,06,24,14,41,23.20
2017,06,24,14,42,23.20
2017,06,24,14,43,23.10
2017,06,24,14,44,23.10
2017,06,24,14,46,22.90
2017,06,24,14,47,22.90
2017,06,24,14,48,22.90
2017,06,24,14,49,22.90
2017,06,24,14,51,22.90
2017,06,24,14,52,22.90
2017,06,24,14,53,22.90
2017,06,24,14,54,22.90
2017,06,24,14,56,22.90
2017,06,24,14,57,22.90
2017,06,24,14,58,22.90
2017,06,24,14,59,22.90
2017,06,24,15,01,22.90
2017,06,24,15,02,22.90
2017,06,24,15,03,22.90
2017,06,24,15,04,23.10
2017,06,24,15,06,23.20
2017,06,24,15,07,23.20
2017,06,24,15,08,23.20
2017,06,24,15,09,23.20
2017,06,24,15,11,23.20
2017,06,24,15,12,23.20
2017,06,24,15,13,23.20
2017,06,24,15,14,23.20
2017,06,24,15,16,23.20
2017,06,24,15,17,23.20
2017,06,24,15,18,23.20
2017,06,24,15,19,23.20
2017,06,24,15,21,23.20
2017,06,24,15,22,23.20
2017,06,24,15,23,23.20
2017,06,24,15,24,23.20
2017,06,24,15,26,23.30
2017,06,24,15,27,23.30
2017,06,24,15,28,23.20
2017,06,24,15,29,23.30
2017,06,24,15,31,23.20
2017,06,24,15,32,23.20
2017,06,24,15,33,23.20
2017,06,24,15,34,23.20
2017,06,24,15,36,23.20
2017,06,24,15,37,23.20
2017,06,24,15,38,23.20
2017,06,24,15,39,23.20
2017,06,24,15,41,23.20
2017,06,24,15,42,23.10
2017,06,24,15,43,23.10
2017,06,24,15,44,23.10
2017,06,24,15,46,23.10
2017,06,24,15,47,23.10
2017,06,24,15,48,23.20
2017,06,24,15,49,23.20
2017,06,24,15,51,23.20
2017,06,24,15,52,23.20
2017,06,24,15,53,23.20
2017,06,24,15,54,23.20
2017,06,24,15,55,23.20
2017,06,24,15,56,23.20
2017,06,24,15,57,23.30
2017,06,24,15,58,23.30
2017,06,24,15,59,23.30
2017,06,24,16,00,23.30
2017,06,24,16,01,23.30
2017,06,24,16,02,23.30
2017,06,24,16,03,23.30
2017,06,24,16,04,23.30
2017,06,24,16,06,23.40
2017,06,24,16,07,23.40
2017,06,24,16,08,23.60
2017,06,24,16,09,23.60
2017,06,24,16,10,23.60
2017,06,24,16,11,23.70
2017,06,24,16,12,23.70
2017,06,24,16,13,23.70
2017,06,24,16,14,23.70
2017,06,24,16,15,23.70
2017,06,24,16,16,23.70
2017,06,24,16,17,23.70
2017,06,24,16,18,23.70
2017,06,24,16,19,23.70
2017,06,24,16,20,23.70
2017,06,24,16,21,23.70
2017,06,24,16,22,23.80
2017,06,24,16,23,23.80
2017,06,24,16,24,23.80
2017,06,24,16,25,23.80
2017,06,24,16,26,23.80
2017,06,24,16,27,23.80
2017,06,24,16,28,23.80
2017,06,24,16,29,23.80
2017,06,24,16,30,23.80
2017,06,24,16,31,23.80
2017,06,24,16,32,23.80
2017,06,24,16,33,23.80
2017,06,24,16,34,23.80
2017,06,24,16,35,23.80
2017,06,24,16,36,23.80
2017,06,24,16,37,23.80
2017,06,24,16,38,23.80
2017,06,24,16,39,23.80
2017,06,24,16,40,23.70
2017,06,24,16,41,23.70
2017,06,24,16,42,23.70
2017,06,24,16,43,23.70
2017,06,24,16,44,23.70
2017,06,24,16,45,23.70
2017,06,24,16,46,23.70
2017,06,24,16,47,23.70
2017,06,24,16,48,23.70
2017,06,24,16,49,23.80
2017,06,24,16,50,23.80
2017,06,24,16,51,23.80
2017,06,24,16,52,23.80
2017,06,24,16,53,23.80
2017,06,24,16,54,23.90
2017,06,24,16,55,23.90
2017,06,24,16,56,23.90
2017,06,24,16,57,23.90
2017,06,24,16,58,24.10
2017,06,24,16,59,24.10
2017,06,24,17,00,24.10
2017,06,24,17,01,23.90
2017,06,24,17,02,23.90
2017,06,24,17,03,23.90
2017,06,24,17,04,23.80
2017,06,24,17,05,23.80
2017,06,24,17,06,23.80
2017,06,24,17,07,23.70
2017,06,24,17,08,23.70
2017,06,24,17,09,23.70
2017,06,24,17,11,23.70
2017,06,24,17,13,23.60
2017,06,24,17,14,23.60
2017,06,24,17,16,23.40
2017,06,24,17,17,23.40
2017,06,24,17,18,23.30
2017,06,24,17,19,23.30
2017,06,24,17,21,23.30
2017,06,24,17,22,23.30
2017,06,24,17,23,23.30
2017,06,24,17,24,23.30
2017,06,24,17,26,23.40
2017,06,24,17,27,23.40
2017,06,24,17,28,23.40
2017,06,24,17,29,23.40
2017,06,24,17,31,23.40
2017,06,24,17,32,23.40
2017,06,24,17,33,23.40
2017,06,24,17,34,23.40
2017,06,24,17,36,23.60
2017,06,24,17,37,23.60
2017,06,24,17,38,23.60
2017,06,24,17,39,23.60
2017,06,24,17,41,23.70
2017,06,24,17,42,23.70
2017,06,24,17,43,23.70
2017,06,24,17,44,23.70
2017,06,24,17,46,23.70
2017,06,24,17,47,23.60
2017,06,24,17,48,23.60
2017,06,24,17,49,23.60
2017,06,24,17,51,23.70
2017,06,24,17,52,23.70
2017,06,24,17,53,23.70
2017,06,24,17,54,23.70
2017,06,24,17,56,23.70
2017,06,24,17,57,23.70
2017,06,24,17,58,23.70
2017,06,24,17,59,23.70
2017,06,24,18,01,23.70
2017,06,24,18,02,23.70
2017,06,24,18,03,23.70
2017,06,24,18,04,23.70
2017,06,24,18,06,23.60
2017,06,24,18,07,23.60
2017,06,24,18,08,23.60
2017,06,24,18,09,23.60
2017,06,24,18,11,23.70
2017,06,24,18,12,23.70
2017,06,24,18,13,23.70
2017,06,24,18,14,23.70
2017,06,24,18,16,23.70
2017,06,24,18,17,23.70
2017,06,24,18,18,23.70
2017,06,24,18,19,23.70
2017,06,24,18,21,23.70
2017,06,24,18,22,23.70
2017,06,24,18,23,23.70
2017,06,24,18,24,23.60
2017,06,24,18,26,23.60
2017,06,24,18,27,23.60
2017,06,24,18,28,23.60
2017,06,24,18,29,23.40
2017,06,24,18,31,23.40
2017,06,24,18,32,23.30
2017,06,24,18,33,23.30
2017,06,24,18,34,23.30
2017,06,24,18,36,23.30
2017,06,24,18,37,23.30
2017,06,24,18,38,23.30
2017,06,24,18,39,23.30
2017,06,24,18,40,23.30
2017,06,24,18,41,23.30
2017,06,24,18,42,23.30
2017,06,24,18,43,23.30
2017,06,24,18,44,23.30
2017,06,24,18,45,23.30
2017,06,24,18,46,23.30
2017,06,24,18,47,23.30
2017,06,24,18,48,23.30
2017,06,24,18,49,23.30
2017,06,24,18,50,23.30
2017,06,24,18,51,23.30
2017,06,24,18,52,23.30
2017,06,24,18,53,23.30
2017,06,24,18,54,23.30
2017,06,24,18,55,23.30
2017,06,24,18,56,23.30
2017,06,24,18,57,23.30
2017,06,24,18,58,23.20
2017,06,24,18,59,23.20
2017,06,24,19,00,23.10
2017,06,24,19,01,22.90
2017,06,24,19,02,22.90
2017,06,24,19,03,22.90
2017,06,24,19,04,22.80
2017,06,24,19,05,22.80
2017,06,24,19,06,22.80
2017,06,24,19,07,22.80
2017,06,24,19,08,22.80
2017,06,24,19,09,22.80
2017,06,24,19,10,22.70
2017,06,24,19,11,22.70
2017,06,24,19,12,22.70
2017,06,24,19,13,22.70
2017,06,24,19,14,22.60
2017,06,24,19,15,22.60
2017,06,24,19,16,22.50
2017,06,24,19,17,22.40
2017,06,24,19,18,22.40
2017,06,24,19,19,22.30
2017,06,24,19,20,22.30
2017,06,24,19,21,22.30
2017,06,24,19,22,22.30
2017,06,24,19,23,22.30
2017,06,24,19,24,22.30
2017,06,24,19,25,22.30
2017,06,24,19,26,22.30
2017,06,24,19,27,22.30
2017,06,24,19,28,22.30
2017,06,24,19,29,22.30
2017,06,24,19,30,22.20
2017,06,24,19,31,22.10
2017,06,24,19,32,22.00